QPF
0.00 0.00 0.00 0.00 0.00 0.00 0.00 0.00 0.00 0.00 0.00 0.00 0.00 0.00 0.00 0.00 0.00 0.01 0.01 0.01 0.00 0.00 0.00 0.00 0.00 0.00 0.00 0.00 0.00 0.00 0.00 0.00 0.00 0.00 0.00 0.00 0.00 0.00 0.00 0.00 0.00 0.00 0.00 0.00 0.00
0.00 0.00 0.00 0.00 0.00 0.00 0.01 0.01 0.00 0.00 0.00 0.00 0.00 0.00 0.00 0.00 0.00 0.01 0.00 0.01 0.01 0.00 0.00 0.00 0.00 0.00 0.00 0.00 0.00 0.00 0.00 0.00 0.00 0.00 0.00 0.00 0.00 0.00 0.00 0.00 0.00 0.00 0.00 0.00 0.00
0.00 0.01 0.01 0.00 0.00 0.00 0.01 0.02 0.00 0.00 0.00 0.00 0.00 0.00 0.00 0.00 0.00 0.00 0.00 0.02 0.04 0.02 0.00 0.00 0.00 0.00 0.00 0.00 0.00 0.00 0.00 0.00 0.00 0.00 0.00 0.00 0.00 0.00 0.00 0.00 0.00 0.00 0.00 0.00 0.00
0.02 0.02 0.03 0.03 0.00 0.00 0.00 0.01 0.00 0.00 0.00 0.00 0.00 0.00 0.00 0.00 0.00 0.00 0.00 0.01 0.04 0.02 0.01 0.00 0.00 0.00 0.00 0.00 0.00 0.00 0.00 0.00 0.00 0.00 0.00 0.00 0.00 0.00 0.00 0.00 0.00 0.00 0.00 0.00 0.00
0.03 0.06 0.05 0.04 0.04 0.00 0.00 0.01 0.00 0.00 0.00 0.00 0.00 0.00 0.00 0.01 0.00 0.00 0.00 0.02 0.04 0.00 0.02 0.02 0.01 0.00 0.00 0.00 0.00 0.00 0.00 0.00 0.00 0.00 0.00 0.00 0.00 0.00 0.00 0.00 0.00 0.00 0.00 0.00 0.00
0.03 0.10 0.06 0.01 0.02 0.00 0.00 0.01 0.00 0.00 0.00 0.00 0.00 0.00 0.00 0.00 0.00 0.00 0.01 0.08 0.04 0.00 0.00 0.01 0.01 0.00 0.00 0.00 0.00 0.00 0.00 0.00 0.00 0.00 0.00 0.00 0.00 0.00 0.00 0.00 0.00 0.00 0.00 0.00 0.00
0.02 0.10 0.07 0.01 0.02 0.00 0.00 0.00 0.00 0.00 0.00 0.00 0.00 0.00 0.00 0.00 0.00 0.00 0.01 0.04 0.06 0.01 0.01 0.01 0.00 0.00 0.00 0.00 0.00 0.00 0.00 0.00 0.00 0.00 0.00 0.00 0.00 0.00 0.00 0.00 0.00 0.00 0.00 0.00 0.00
0.02 0.11 0.08 0.05 0.07 0.02 0.00 0.00 0.00 0.00 0.00 0.00 0.00 0.00 0.00 0.00 0.00 0.00 0.01 0.03 0.02 0.02 0.01 0.02 0.01 0.00 0.00 0.00 0.00 0.00 0.00 0.00 0.00 0.00 0.00 0.00 0.00 0.00 0.00 0.00 0.00 0.00 0.00 0.00 0.00
0.03 0.09 0.06 0.04 0.05 0.02 0.00 0.00 0.00 0.00 0.00 0.00 0.00 0.00 0.00 0.00 0.00 0.00 0.00 0.02 0.03 0.03 0.01 0.01 0.03 0.01 0.00 0.00 0.00 0.00 0.00 0.00 0.00 0.00 0.00 0.00 0.00 0.00 0.00 0.00 0.00 0.00 0.00 0.00 0.00
0.07 0.06 0.06 0.05 0.03 0.02 0.00 0.00 0.00 0.00 0.00 0.00 0.00 0.00 0.00 0.00 0.00 0.00 0.00 0.01 0.08 0.04 0.04 0.02 0.02 0.01 0.01 0.01 0.00 0.00 0.00 0.00 0.00 0.00 0.00 0.00 0.00 0.00 0.00 0.00 0.00 0.00 0.00 0.00 0.00
0.09 0.05 0.06 0.08 0.02 0.00 0.00 0.00 0.00 0.00 0.00 0.00 0.00 0.00 0.00 0.00 0.00 0.00 0.01 0.02 0.06 0.05 0.03 0.01 0.01 0.01 0.00 0.00 0.00 0.00 0.00 0.00 0.00 0.00 0.00 0.00 0.00 0.00 0.00 0.00 0.00 0.00 0.00 0.00 0.00
0.04 0.04 0.06 0.11 0.02 0.00 0.00 0.00 0.00 0.00 0.00 0.00 0.00 0.00 0.00 0.00 0.00 0.00 0.00 0.01 0.02 0.03 0.01 0.02 0.01 0.00 0.00 0.01 0.00 0.00 0.00 0.00 0.00 0.00 0.00 0.00 0.00 0.00 0.00 0.00 0.00 0.00 0.00 0.00 0.00
0.03 0.05 0.09 0.08 0.01 0.00 0.00 0.00 0.00 0.00 0.00 0.00 0.00 0.00 0.00 0.00 0.00 0.00 0.00 0.00 0.01 0.01 0.01 0.00 0.00 0.00 0.00 0.01 0.01 0.00 0.00 0.00 0.00 0.00 0.00 0.00 0.00 0.00 0.00 0.00 0.00 0.00 0.00 0.00 0.00
0.05 0.03 0.05 0.06 0.01 0.00 0.00 0.00 0.00 0.00 0.00 0.00 0.00 0.00 0.00 0.00 0.00 0.00 0.00 0.00 0.01 0.00 0.01 0.00 0.00 0.00 0.00 0.00 0.00 0.00 0.00 0.00 0.00 0.00 0.00 0.00 0.00 0.00 0.00 0.00 0.00 0.00 0.00 0.00 0.00
0.05 0.06 0.04 0.00 0.00 0.00 0.00 0.00 0.00 0.00 0.00 0.00 0.00 0.00 0.00 0.00 0.00 0.00 0.00 0.00 0.00 0.00 0.00 0.00 0.00 0.00 0.00 0.00 0.00 0.00 0.00 0.00 0.00 0.00 0.00 0.00 0.00 0.00 0.00 0.00 0.00 0.00 0.00 0.00 0.00
0.02 0.01 0.00 0.00 0.00 0.00 0.00 0.00 0.00 0.00 0.00 0.00 0.00 0.00 0.00 0.00 0.00 0.00 0.00 0.00 0.01 0.00 0.00 0.00 0.00 0.00 0.00 0.00 0.00 0.00 0.00 0.00 0.00 0.00 0.00 0.00 0.00 0.00 0.00 0.00 0.00 0.00 0.00 0.00 0.00
0.00 0.00 0.00 0.00 0.00 0.00 0.00 0.00 0.00 0.00 0.00 0.00 0.00 0.00 0.00 0.00 0.00 0.00 0.00 0.01 0.00 0.00 0.00 0.00 0.00 0.00 0.00 0.00 0.01 0.00 0.01 0.00 0.00 0.00 0.00 0.00 0.00 0.00 0.00 0.00 0.00 0.00 0.00 0.00 0.00
0.00 0.00 0.00 0.00 0.00 0.00 0.00 0.00 0.00 0.00 0.00 0.00 0.00 0.00 0.00 0.00 0.00 0.00 0.00 0.00 0.01 0.00 0.00 0.00 0.00 0.00 0.00 0.00 0.00 0.01 0.00 0.00 0.00 0.00 0.00 0.00 0.00 0.00 0.00 0.00 0.00 0.00 0.00 0.00 0.00
0.00 0.00 0.00 0.00 0.00 0.00 0.00 0.00 0.00 0.00 0.00 0.00 0.00 0.00 0.00 0.00 0.00 0.00 0.00 0.00 0.00 0.00 0.00 0.00 0.00 0.00 0.00 0.00 0.00 0.00 0.00 0.00 0.00 0.00 0.00 0.00 0.00 0.00 0.00 0.00 0.00 0.00 0.00 0.00 0.00
0.00 0.00 0.00 0.00 0.00 0.00 0.00 0.00 0.00 0.00 0.00 0.00 0.00 0.00 0.00 0.00 0.00 0.00 0.00 0.00 0.00 0.00 0.00 0.00 0.00 0.00 0.00 0.00 0.00 0.00 0.00 0.00 0.00 0.00 0.00 0.00 0.00 0.00 0.00 0.00 0.00 0.00 0.00 0.00 0.00
0.00 0.00 0.00 0.00 0.00 0.00 0.00 0.00 0.00 0.00 0.00 0.00 0.00 0.00 0.00 0.00 0.00 0.00 0.00 0.00 0.00 0.00 0.01 0.00 0.00 0.00 0.00 0.00 0.00 0.00 0.00 0.00 0.00 0.00 0.00 0.00 0.00 0.00 0.00 0.00 0.00 0.00 0.00 0.00 0.00
0.00 0.00 0.00 0.00 0.00 0.00 0.00 0.00 0.00 0.00 0.00 0.00 0.00 0.00 0.00 0.00 0.00 0.00 0.00 0.00 0.00 0.00 0.00 0.00 0.00 0.00 0.00 0.00 0.00 0.00 0.00 0.00 0.00 0.00 0.00 0.00 0.00 0.00 0.00 0.00 0.00 0.00 0.00 0.00 0.00
0.00 0.00 0.00 0.00 0.00 0.00 0.00 0.00 0.00 0.00 0.00 0.00 0.00 0.00 0.00 0.00 0.00 0.00 0.00 0.00 0.00 0.00 0.00 0.00 0.00 0.00 0.00 0.00 0.00 0.00 0.00 0.00 0.00 0.00 0.00 0.00 0.00 0.00 0.00 0.00 0.00 0.00 0.00 0.00 0.00
0.00 0.00 0.00 0.00 0.00 0.00 0.00 0.00 0.00 0.00 0.00 0.00 0.00 0.00 0.00 0.00 0.00 0.00 0.00 0.00 0.00 0.00 0.00 0.00 0.00 0.00 0.00 0.00 0.00 0.00 0.00 0.00 0.00 0.00 0.00 0.00 0.00 0.00 0.00 0.00 0.00 0.00 0.00 0.00 0.00
0.00 0.00 0.00 0.00 0.00 0.00 0.00 0.00 0.00 0.00 0.00 0.00 0.00 0.00 0.00 0.00 0.00 0.00 0.00 0.01 0.00 0.00 0.00 0.00 0.00 0.00 0.00 0.00 0.00 0.00 0.00 0.00 0.00 0.00 0.00 0.00 0.00 0.00 0.00 0.00 0.00 0.00 0.00 0.00 0.00
0.00 0.00 0.00 0.00 0.00 0.00 0.00 0.00 0.00 0.00 0.00 0.00 0.00 0.00 0.00 0.00 0.00 0.01 0.00 0.00 0.00 0.00 0.00 0.00 0.00 0.00 0.00 0.00 0.00 0.00 0.00 0.00 0.00 0.00 0.00 0.00 0.00 0.00 0.00 0.00 0.00 0.00 0.00 0.00 0.00
0.00 0.00 0.00 0.00 0.00 0.00 0.00 0.00 0.00 0.00 0.00 0.00 0.00 0.00 0.00 0.00 0.00 0.00 0.00 0.00 0.00 0.00 0.00 0.00 0.00 0.00 0.00 0.00 0.00 0.00 0.00 0.00 0.00 0.00 0.00 0.00 0.00 0.00 0.00 0.00 0.00 0.00 0.00 0.00 0.00
MSLP
1019.13 1019.19 1019.21 1019.20 1019.14 1019.18 1019.10 1019.08 1019.06 1018.90 1018.82 1018.68 1018.46 1018.21 1017.88 1017.84 1017.34 1017.25 1016.48 1016.24 1016.34 1016.12 1016.27 1015.86 1015.89 1015.76 1016.02 1016.52 1016.84 1017.47 1017.76 1017.40 1016.60 1016.18 1015.85 1015.55 1015.56 1015.66 1015.85 1016.23 1016.75 1017.18 1017.43 1017.55 1018.38
1018.81 1018.93 1018.92 1018.93 1018.98 1019.02 1018.98 1018.98 1018.96 1018.90 1018.73 1018.55 1018.31 1018.14 1017.75 1017.44 1017.40 1016.96 1015.50 1015.90 1015.90 1016.10 1015.97 1015.90 1016.01 1016.17 1016.65 1016.76 1016.94 1017.71 1017.78 1017.06 1016.41 1016.21 1015.86 1015.32 1015.58 1015.55 1015.97 1016.27 1016.90 1017.35 1017.83 1017.93 1018.57
1018.46 1018.59 1018.70 1018.64 1018.71 1018.82 1018.82 1018.87 1018.89 1018.82 1018.75 1018.51 1018.23 1017.96 1017.75 1017.49 1017.11 1015.50 1014.77 1015.41 1015.82 1016.05 1015.98 1016.15 1016.67 1016.69 1017.33 1017.18 1017.03 1017.33 1017.34 1016.78 1016.54 1016.22 1015.98 1015.68 1015.65 1015.61 1015.80 1016.21 1016.16 1016.60 1017.63 1018.05 1018.60
1018.09 1018.27 1018.34 1018.48 1018.46 1018.56 1018.64 1018.76 1018.73 1018.68 1018.63 1018.52 1018.22 1017.87 1017.68 1017.54 1016.92 1015.36 1015.30 1015.18 1015.51 1016.09 1016.03 1016.15 1016.72 1017.05 1017.07 1016.87 1016.80 1017.14 1016.94 1016.76 1016.44 1016.32 1016.26 1016.00 1015.80 1015.71 1015.81 1015.49 1015.67 1015.95 1016.97 1017.84 1018.45
1017.70 1017.85 1017.80 1018.05 1018.16 1018.23 1018.42 1018.47 1018.58 1018.52 1018.48 1018.40 1018.18 1017.88 1017.59 1017.46 1016.47 1015.31 1014.88 1014.83 1015.54 1015.82 1015.77 1016.01 1016.42 1016.73 1016.85 1016.61 1016.95 1016.88 1016.85 1016.60 1016.22 1016.36 1016.20 1016.10 1015.82 1015.78 1015.56 1015.46 1015.85 1016.39 1017.32 1017.86 1018.44
1017.16 1017.38 1017.46 1017.63 1017.84 1017.99 1018.12 1018.24 1018.32 1018.44 1018.33 1018.24 1018.05 1017.75 1017.68 1017.09 1015.80 1015.55 1015.19 1014.92 1015.31 1015.25 1015.67 1015.80 1016.16 1016.38 1016.48 1016.18 1016.50 1016.58 1016.61 1016.59 1016.24 1016.11 1016.14 1016.02 1015.76 1015.71 1015.59 1015.85 1016.58 1016.92 1017.52 1018.03 1018.41
1016.62 1016.91 1017.03 1017.28 1017.59 1017.79 1017.98 1018.06 1018.17 1018.32 1018.24 1018.10 1017.94 1017.86 1017.49 1016.50 1015.85 1015.66 1015.21 1015.21 1015.17 1015.19 1015.58 1015.77 1015.92 1016.16 1016.11 1016.28 1016.66 1016.45 1016.90 1016.77 1016.30 1016.06 1015.87 1015.75 1015.94 1015.73 1015.79 1016.25 1016.81 1017.38 1017.72 1018.18 1018.59
1016.15 1016.54 1016.66 1017.04 1017.43 1017.66 1017.89 1018.00 1018.05 1018.13 1018.07 1017.86 1017.71 1017.82 1017.21 1015.92 1015.85 1015.65 1015.30 1015.13 1015.33 1015.42 1015.33 1015.50 1015.81 1016.13 1016.09 1016.47 1016.42 1016.68 1016.92 1016.88 1016.35 1016.08 1015.73 1015.88 1015.94 1015.73 1016.03 1016.56 1016.99 1017.57 1017.89 1018.37 1018.79
1015.72 1016.20 1016.39 1016.79 1017.09 1017.46 1017.75 1017.91 1017.98 1017.91 1017.74 1017.65 1017.79 1017.70 1016.88 1015.83 1015.94 1015.73 1015.56 1015.50 1015.38 1015.47 1015.44 1015.62 1015.92 1016.02 1016.34 1016.13 1016.58 1016.55 1016.41 1016.76 1016.85 1016.38 1016.21 1016.18 1016.06 1016.04 1016.33 1016.84 1017.29 1017.74 1017.99 1018.44 1018.91
1015.28 1015.85 1016.17 1016.56 1017.10 1017.46 1017.75 1017.87 1017.89 1017.88 1017.78 1017.73 1017.80 1018.11 1016.81 1016.50 1016.29 1016.03 1015.61 1015.55 1015.45 1015.48 1015.73 1015.70 1015.95 1015.85 1015.86 1015.65 1015.46 1015.77 1016.55 1016.70 1016.87 1016.76 1016.59 1016.53 1016.20 1016.15 1016.72 1017.24 1017.42 1017.80 1018.22 1018.48 1018.89
1015.03 1015.51 1015.96 1016.53 1017.22 1017.54 1018.03 1018.19 1018.66 1018.58 1018.23 1017.98 1017.76 1017.62 1017.24 1016.81 1016.44 1015.94 1015.64 1015.46 1015.72 1015.59 1014.98 1015.46 1015.27 1014.36 1014.81 1015.50 1015.47 1015.62 1016.32 1016.74 1016.88 1016.68 1016.57 1016.53 1016.32 1016.17 1016.73 1017.34 1017.54 1017.89 1018.27 1018.76 1019.06
1014.87 1015.29 1015.86 1016.59 1017.06 1017.61 1018.08 1018.49 1018.46 1018.68 1018.43 1018.04 1017.91 1017.82 1017.46 1017.19 1016.80 1015.97 1015.74 1015.70 1015.63 1015.29 1015.39 1015.68 1014.23 1014.43 1014.79 1015.45 1015.86 1015.84 1016.13 1016.58 1017.18 1016.85 1016.74 1016.77 1016.50 1016.31 1016.55 1016.83 1017.11 1017.63 1018.23 1018.80 1019.34
1014.72 1015.30 1015.96 1016.76 1017.27 1018.00 1018.36 1018.37 1018.32 1018.37 1018.88 1018.48 1018.18 1017.93 1017.51 1017.31 1016.95 1016.16 1015.91 1015.62 1015.70 1015.56 1014.83 1014.76 1014.41 1014.41 1014.70 1015.18 1015.50 1015.74 1015.93 1016.13 1017.15 1017.24 1017.03 1017.02 1016.92 1016.49 1016.31 1016.54 1017.02 1017.44 1018.06 1018.70 1019.37
1014.87 1015.53 1016.25 1016.94 1017.76 1018.36 1018.51 1018.35 1018.42 1018.52 1019.67 1019.16 1018.52 1017.91 1017.56 1017.27 1016.91 1016.17 1015.76 1015.66 1015.99 1015.66 1015.12 1014.84 1014.56 1014.47 1014.36 1014.70 1015.16 1015.57 1015.59 1016.33 1016.87 1017.21 1017.32 1017.22 1016.95 1016.43 1016.37 1016.66 1017.19 1017.62 1017.97 1018.77 1019.58
1015.45 1016.09 1016.79 1017.18 1018.02 1018.64 1018.89 1018.57 1018.59 1018.86 1019.97 1019.60 1018.55 1017.83 1017.66 1017.76 1017.44 1016.47 1015.95 1015.67 1015.72 1015.54 1016.03 1015.22 1014.69 1014.94 1014.55 1014.38 1015.03 1015.52 1015.57 1016.24 1016.94 1017.23 1017.39 1017.80 1017.78 1016.32 1016.58 1017.10 1017.50 1017.90 1018.44 1019.07 1019.98
1016.13 1016.68 1017.16 1017.82 1018.52 1019.06 1018.92 1018.84 1019.29 1020.96 1021.02 1020.09 1018.93 1018.28 1018.18 1017.84 1017.72 1017.03 1016.55 1016.47 1016.26 1017.09 1016.69 1015.99 1015.60 1014.94 1014.35 1014.65 1014.82 1015.36 1016.07 1017.10 1017.51 1017.74 1017.62 1017.30 1017.51 1016.84 1016.71 1016.82 1017.60 1018.35 1019.02 1019.54 1020.50
1017.14 1017.48 1017.78 1018.29 1019.19 1019.08 1019.23 1019.92 1021.47 1022.48 1022.26 1021.21 1019.95 1019.17 1018.87 1018.44 1018.26 1017.76 1017.24 1016.78 1016.48 1016.91 1016.52 1016.43 1015.57 1014.52 1014.00 1014.89 1015.36 1015.15 1016.13 1017.82 1018.30 1018.28 1018.08 1018.01 1017.89 1017.00 1016.78 1016.86 1017.06 1018.20 1019.32 1019.93 1020.70
1017.63 1017.80 1019.09 1019.56 1019.56 1019.32 1019.80 1021.40 1023.29 1023.74 1023.11 1021.72 1020.86 1020.15 1019.91 1019.04 1018.39 1018.16 1017.73 1017.32 1016.94 1016.88 1016.75 1016.24 1015.89 1014.75 1013.99 1013.92 1014.20 1015.32 1015.59 1016.74 1017.30 1018.22 1018.77 1018.59 1017.84 1017.20 1017.33 1017.27 1017.38 1018.37 1019.63 1020.67 1021.27
1017.98 1018.80 1019.56 1020.02 1019.70 1019.55 1020.84 1022.83 1023.76 1023.74 1022.88 1021.88 1020.90 1020.56 1020.38 1019.83 1019.23 1018.38 1017.98 1017.34 1016.75 1016.59 1016.90 1016.10 1015.70 1014.84 1014.42 1014.12 1014.49 1015.69 1015.87 1016.78 1017.54 1018.83 1018.91 1018.71 1018.27 1017.85 1018.14 1018.27 1018.13 1018.55 1019.41 1020.60 1022.22
1018.95 1019.68 1020.58 1020.35 1019.95 1020.33 1022.02 1023.82 1023.98 1023.10 1022.21 1021.91 1021.69 1020.90 1020.87 1020.12 1019.57 1018.82 1017.75 1016.50 1016.07 1015.68 1015.72 1016.03 1015.77 1015.29 1014.82 1014.84 1015.08 1015.44 1016.50 1017.45 1017.80 1018.74 1018.92 1018.78 1018.34 1017.71 1018.21 1018.37 1018.42 1018.91 1019.46 1020.84 1022.14
1019.85 1020.73 1020.94 1020.56 1020.33 1021.75 1023.82 1024.59 1023.70 1022.71 1022.12 1021.73 1021.35 1020.87 1020.42 1020.05 1019.39 1018.66 1017.28 1015.99 1015.34 1015.31 1015.83 1016.15 1016.34 1016.12 1015.67 1015.53 1015.43 1016.24 1016.45 1017.25 1017.62 1018.20 1018.39 1018.73 1017.82 1017.34 1017.70 1017.98 1018.37 1018.93 1019.88 1020.93 1021.78
1020.98 1022.02 1021.22 1020.87 1022.20 1024.26 1024.76 1024.16 1023.26 1022.36 1021.76 1021.10 1020.73 1020.34 1019.93 1019.61 1019.10 1018.16 1017.05 1015.54 1014.63 1014.65 1015.21 1016.03 1016.46 1016.42 1016.45 1016.10 1016.04 1015.56 1016.17 1016.49 1016.93 1018.38 1018.49 1018.02 1017.60 1017.17 1017.42 1017.88 1018.32 1019.09 1020.03 1020.98 1021.75
1022.00 1022.37 1021.72 1021.67 1023.33 1024.73 1024.48 1023.88 1022.86 1021.91 1021.06 1020.38 1019.84 1019.47 1019.13 1018.94 1018.68 1017.40 1016.00 1015.03 1014.50 1014.39 1014.68 1015.66 1016.39 1016.73 1017.02 1016.81 1016.32 1016.02 1016.23 1016.53 1017.05 1017.51 1018.49 1018.32 1017.51 1017.11 1017.28 1017.90 1018.31 1018.78 1019.58 1020.48 1021.49
1022.61 1023.43 1023.18 1023.13 1023.58 1023.85 1024.37 1023.39 1022.21 1020.93 1020.35 1019.95 1019.62 1019.34 1019.11 1018.59 1018.09 1017.27 1016.01 1015.11 1014.66 1014.39 1014.79 1014.84 1016.48 1017.06 1017.05 1016.53 1016.26 1016.36 1016.52 1016.72 1016.71 1017.65 1018.29 1018.11 1017.21 1017.25 1017.30 1017.66 1018.26 1018.85 1019.58 1020.24 1021.05
1022.99 1024.29 1024.48 1024.23 1023.90 1023.68 1023.33 1022.47 1021.51 1020.61 1020.05 1019.68 1019.33 1019.04 1018.90 1018.34 1017.45 1016.83 1016.08 1015.29 1015.21 1014.58 1015.26 1015.43 1016.83 1017.82 1017.63 1017.11 1016.66 1016.71 1016.83 1016.99 1017.27 1017.48 1017.83 1017.38 1017.29 1016.81 1017.16 1017.36 1017.96 1018.47 1019.35 1020.23 1021.09
1022.83 1024.00 1024.69 1024.48 1024.04 1023.63 1022.79 1021.82 1020.86 1020.04 1019.84 1019.30 1019.39 1018.86 1018.52 1018.11 1017.80 1016.40 1015.64 1015.00 1014.41 1015.37 1015.90 1016.22 1017.54 1017.85 1018.86 1018.15 1017.52 1017.60 1017.47 1017.41 1017.71 1017.90 1017.96 1017.42 1017.22 1016.83 1017.15 1017.48 1018.49 1019.06 1019.52 1020.37 1021.11
1022.64 1023.14 1023.53 1024.32 1024.14 1023.81 1022.37 1021.56 1020.43 1020.30 1019.42 1019.46 1019.30 1018.57 1018.23 1018.16 1017.85 1017.14 1016.36 1014.91 1013.94 1014.57 1015.82 1016.11 1017.18 1018.43 1019.69 1019.14 1018.31 1018.47 1017.24 1017.30 1017.53 1017.46 1017.42 1017.26 1016.75 1016.97 1017.51 1017.87 1018.20 1018.95 1019.42 1020.08 1020.90
Thickness
5486 5483 5482 5483 5487 5485 5493 5500 5509 5520 5527 5535 5545 5555 5565 5571 5583 5591 5603 5609 5615 5622 5625 5635 5639 5644 5648 5647 5651 5650 5642 5644 5662 5669 5679 5691 5693 5698 5702 5702 5703 5703 5706 5709 5705
5463 5458 5457 5458 5461 5463 5471 5481 5493 5503 5514 5524 5534 5544 5556 5567 5573 5584 5604 5605 5612 5615 5623 5627 5629 5634 5631 5637 5642 5634 5635 5650 5665 5671 5678 5689 5691 5697 5697 5698 5698 5700 5702 5705 5702
5446 5443 5440 5439 5438 5439 5448 5460 5473 5487 5498 5510 5522 5533 5545 5555 5568 5585 5597 5605 5605 5609 5618 5622 5621 5625 5620 5630 5637 5635 5638 5654 5661 5671 5678 5685 5688 5695 5694 5693 5704 5704 5700 5702 5700
5440 5437 5434 5432 5430 5431 5433 5441 5455 5471 5483 5496 5509 5522 5533 5544 5550 5580 5588 5599 5600 5598 5609 5614 5615 5613 5616 5621 5634 5630 5645 5651 5660 5668 5671 5677 5685 5690 5693 5707 5709 5712 5707 5702 5699
5437 5433 5431 5428 5426 5426 5428 5431 5439 5456 5469 5483 5497 5511 5523 5534 5552 5573 5584 5590 5592 5595 5604 5608 5609 5611 5612 5621 5625 5628 5638 5650 5657 5662 5669 5674 5680 5687 5693 5705 5705 5706 5702 5700 5698
5435 5430 5427 5424 5423 5422 5424 5427 5430 5442 5457 5471 5485 5499 5512 5524 5550 5561 5571 5582 5586 5592 5596 5604 5606 5610 5613 5621 5622 5629 5634 5643 5651 5658 5665 5671 5678 5687 5695 5698 5695 5698 5697 5697 5696
5432 5428 5425 5422 5420 5419 5421 5424 5425 5433 5446 5461 5474 5488 5505 5519 5539 5550 5562 5571 5578 5586 5588 5598 5603 5604 5610 5613 5618 5625 5626 5633 5642 5653 5659 5667 5670 5679 5689 5691 5690 5691 5693 5693 5692
5428 5425 5423 5420 5417 5416 5417 5421 5423 5427 5438 5453 5465 5479 5494 5515 5528 5541 5554 5565 5571 5578 5586 5592 5597 5598 5603 5606 5612 5615 5621 5616 5638 5645 5658 5662 5653 5680 5680 5684 5685 5686 5687 5686 5684
5426 5422 5422 5420 5417 5416 5416 5418 5420 5425 5434 5446 5458 5472 5485 5507 5517 5531 5543 5554 5563 5570 5580 5586 5589 5593 5595 5601 5599 5604 5607 5611 5625 5637 5645 5650 5656 5670 5673 5677 5678 5680 5683 5682 5680
5426 5422 5421 5419 5415 5413 5413 5416 5419 5423 5430 5439 5451 5463 5487 5495 5506 5520 5535 5546 5555 5563 5568 5576 5579 5587 5592 5596 5600 5602 5602 5611 5610 5627 5633 5640 5652 5666 5664 5668 5673 5675 5676 5678 5678
5425 5423 5421 5417 5412 5411 5411 5412 5411 5415 5424 5434 5448 5458 5471 5482 5495 5512 5526 5537 5543 5554 5567 5571 5578 5593 5598 5597 5607 5609 5603 5608 5613 5624 5630 5632 5646 5659 5658 5660 5665 5669 5672 5672 5673
5425 5424 5420 5415 5412 5410 5410 5408 5414 5417 5420 5429 5437 5446 5458 5471 5485 5503 5518 5529 5538 5550 5558 5563 5581 5593 5593 5591 5591 5599 5602 5600 5601 5613 5623 5626 5638 5650 5653 5659 5664 5666 5665 5666 5663
5427 5423 5419 5413 5411 5407 5407 5411 5413 5417 5413 5424 5431 5437 5451 5465 5476 5491 5509 5523 5531 5541 5559 5567 5577 5584 5587 5585 5587 5593 5597 5602 5600 5605 5613 5619 5625 5638 5652 5658 5658 5662 5662 5661 5660
5426 5421 5416 5412 5407 5404 5406 5410 5412 5415 5367 5407 5425 5435 5447 5456 5469 5487 5502 5517 5523 5538 5554 5561 5568 5576 5581 5583 5590 5587 5600 5600 5595 5599 5598 5610 5604 5625 5641 5648 5650 5653 5657 5657 5653
5421 5416 5411 5408 5403 5402 5403 5407 5409 5408 5348 5414 5424 5433 5442 5447 5459 5479 5492 5508 5517 5533 5534 5549 5560 5565 5574 5586 5585 5586 5595 5596 5593 5593 5596 5595 5598 5621 5628 5632 5639 5642 5645 5645 5643
5418 5412 5408 5404 5400 5398 5400 5403 5403 5361 5342 5399 5422 5432 5436 5445 5452 5465 5481 5496 5510 5508 5521 5536 5548 5563 5575 5579 5583 5582 5579 5575 5577 5582 5582 5600 5602 5606 5619 5633 5635 5632 5633 5635 5631
5412 5408 5406 5402 5397 5398 5399 5394 5363 5339 5376 5381 5404 5423 5425 5437 5442 5455 5469 5486 5496 5501 5520 5527 5544 5559 5572 5565 5567 5578 5579 5559 5564 5570 5584 5574 5590 5605 5615 5625 5634 5630 5626 5624 5621
5410 5407 5397 5393 5394 5396 5393 5373 5334 5320 5327 5391 5404 5412 5410 5424 5437 5448 5456 5463 5488 5498 5512 5529 5542 5552 5566 5573 5577 5572 5582 5573 5575 5574 5568 5568 5586 5599 5604 5614 5624 5622 5616 5611 5607
5408 5401 5395 5391 5392 5394 5379 5336 5341 5331 5373 5396 5404 5387 5405 5406 5417 5442 5446 5457 5484 5498 5511 5526 5536 5545 5559 5568 5574 5559 5570 5570 5562 5530 5566 5572 5578 5589 5593 5598 5608 5610 5608 5599 5590
5400 5393 5385 5386 5389 5385 5362 5364 5339 5367 5390 5387 5363 5378 5352 5379 5415 5424 5444 5462 5480 5503 5511 5518 5532 5539 5551 5558 5557 5564 5563 5556 5555 5552 5556 5563 5570 5582 5582 5593 5598 5598 5600 5591 5581
5390 5375 5380 5382 5382 5366 5336 5323 5342 5370 5381 5383 5378 5382 5398 5391 5410 5422 5437 5467 5482 5494 5507 5512 5517 5528 5541 5543 5552 5550 5550 5551 5559 5556 5562 5561 5576 5583 5583 5591 5591 5592 5588 5581 5575
5379 5360 5376 5377 5351 5307 5315 5329 5363 5366 5378 5385 5388 5394 5399 5390 5409 5425 5430 5463 5481 5497 5506 5508 5507 5528 5524 5530 5538 5554 5554 5559 5561 5555 5547 5561 5574 5578 5581 5580 5585 5583 5577 5571 5568
5360 5363 5371 5369 5326 5301 5312 5337 5354 5363 5379 5388 5395 5400 5401 5407 5407 5413 5437 5463 5478 5496 5501 5506 5507 5522 5522 5527 5537 5548 5550 5555 5554 5552 5544 5557 5568 5574 5576 5574 5577 5577 5575 5570 5563
5364 5352 5352 5351 5339 5337 5316 5332 5350 5375 5381 5389 5390 5395 5399 5402 5406 5417 5436 5460 5472 5489 5501 5511 5493 5507 5519 5530 5539 5542 5547 5549 5556 5547 5546 5550 5572 5571 5571 5573 5568 5566 5566 5565 5560
5360 5341 5337 5337 5350 5358 5358 5364 5373 5379 5382 5385 5389 5391 5392 5391 5407 5418 5433 5454 5461 5483 5484 5500 5483 5479 5489 5510 5531 5538 5543 5544 5549 5549 5551 5562 5559 5573 5571 5569 5568 5567 5561 5556 5552
5365 5352 5346 5340 5348 5359 5365 5365 5383 5390 5383 5390 5386 5388 5388 5394 5397 5429 5440 5459 5474 5474 5477 5480 5482 5486 5485 5496 5523 5525 5532 5537 5535 5534 5536 5547 5560 5565 5561 5557 5556 5555 5557 5553 5547
5371 5364 5359 5343 5356 5344 5363 5375 5387 5383 5392 5383 5381 5386 5392 5393 5397 5409 5424 5456 5479 5485 5477 5482 5483 5480 5485 5476 5513 5517 5526 5529 5532 5532 5538 5546 5559 5554 5556 5554 5552 5550 5553 5552 5546